Cordova, SC (29039)

10:02 PM EST on February 13, 2016 (GMT -0500)
APRSWXNET | | Change Station
CLOSE
Current Station
Personal Weather Station
Location: Cordova, SC
Elevation: 206 ft
Nearby Weather Stations

Elev 206 ft 33.49 °N, 80.93 °W | Updated 1 hour ago

Clear
Clear
30 °F
Feels Like 30 °F
N
0
Wind Variable Wind from NE
Gusts 0.0 mph

Today
High -- | Low -- °F
--% Chance of Precip.
Yesterday
High -- | Low -- °F
Precip. -- in
Pressure 30.38 in
Visibility 10.0 miles
Clouds Clear
Windchill 30 °F
Dew Point 19 °F
Humidity 64%
Rainfall in
Snow Depth Not available.
7:10 AM 6:06 PM
Waxing Crescent, 37% visible
METAR KOGB 140253Z AUTO 05004KT 10SM CLR 02/M13 A3037 RMK AO2 SLP285 T00171128 51016
Pressure 30.38 in
Visibility 10.0 miles
Clouds Clear
Windchill 30 °F
Dew Point 19 °F
Humidity 64%
Rainfall in
Snow Depth Not available.
7:10 AM 6:06 PM
Waxing Crescent, 37% visible
METAR KOGB 140253Z AUTO 05004KT 10SM CLR 02/M13 A3037 RMK AO2 SLP285 T00171128 51016

10-Day Weather Forecast

Almanac

Astronomy

Feb. 13, 2016 Rise Set
Actual Time
Civil Twilight
Nautical Twilight
Astronomical Twilight
Moon
Length of Visible Light
Length of Day
Tomorrow will be .
, % of the Moon is Illuminated

Today's Extremes

State Highs State Lows

Community

WunderPhotos

Upload Photos

1,892,731 photos uploaded!

WunderBlog® & News

Nearby

Air Quality

  Air Quality AQ Index Pollutant
Not available.

Snow Depth

Station Depth Elevation

Earthquake Activity

City Distance Mag. Time & Date
Minimum magnitude displayed is 2.5.

Coastal Water Temperatures

Place Temperature

Stations

Nearby Weather Stations

Station Location Temp. Windchill Dew Point Humidity Wind Precip. Elev Updated Type
                   

Watches & Warnings

There are currently no watches in effect.